Tracking 25693 objects as of 1-Jul-2022
HD Live streaming from Space Station
objects crossing your sky now

STARLINK-1683

Track STARLINK-1683 now!
10-day predictions
STARLINK-1683 is classified as:


NORAD ID: 46578
Int'l Code: 2020-070AY
Perigee: 553.1 km
Apogee: 555.5 km
Inclination: 53.1 °
Period: 95.6 minutes
Semi major axis: 6925 km
RCS: Unknown
Launch date: October 6, 2020
Source: United States (US)
Launch site: AIR FORCE EASTERN TEST RANGE (AFETR)
aabbcc
Your satellite tracking list
Your tracking list is empty




NASA's NSSDC Master Catalog

Two Line Element Set (TLE):
1 46578U 20070AY  22182.49782579  .00001782  00000-0  13852-3 0  9995
2 46578  53.0554  74.4528 0001741  72.7111 287.4068 15.06402802 96879
Source of the keplerian elements: AFSPC